EW8749 Weather Reports


time (UTC)temp
F
wind
direction
speed
knots
gust
knots
rain 1hr
in
rain 24hr
in
rain mn
in
humidity
%
barometer
mb
20260903050044 57 222 3.5 12.2 0.00 0.17 0.10 63 1014.8
20260903044551 57 245 0.9 11.3 0.00 0.17 0.10 63 1014.7
20260903043040 57 243 0.9 16.5 0.00 0.17 0.10 64 1014.5
20260903041546 57 178 2.6 12.2 0.00 0.17 0.10 61 1014.2
20260903040037 57 230 2.6 13.0 0.00 0.17 0.10 62 1014.0
20260903034535 57 332 0.9 14.8 0.00 0.17 0.10 62 1013.7
20260903033034 57 258 0.9 14.8 0.00 0.17 0.10 62 1013.7
20260903031533 57 248 1.7 12.2 0.00 0.17 0.10 63 1013.5
20260903030034 57 308 0.0 10.4 0.00 0.17 0.10 63 1013.5
20260903023033 57 273 0.9 13.0 0.00 0.17 0.10 63 1013.4
20260903021529 57 197 1.7 11.3 0.00 0.17 0.10 60 1013.4
20260903020036 58 290 0.9 13.9 0.00 0.17 0.10 61 1013.6
20260903014525 58 247 0.0 11.3 0.00 0.17 0.10 62 1013.3
20260903013023 58 276 0.9 14.8 0.01 0.17 0.10 62 1013.4
20260903011521 58 290 0.0 9.6 0.01 0.17 0.10 61 1013.3
20260903010019 58 242 0.0 14.8 0.01 0.17 0.10 61 1013.2
20260903004519 58 270 0.9 14.8 0.01 0.17 0.10 62 1013.0
20260903003016 58 269 0.0 13.0 0.00 0.17 0.09 60 1013.0
20260903001514 58 276 0.0 15.6 0.00 0.17 0.09 62 1013.2
20260903000014 58 285 7.0 13.0 0.00 0.17 0.09 63 1013.1
20260902234511 58 242 1.7 14.8 0.00 0.17 0.09 66 1012.9
20260902233010 58 242 0.9 13.0 0.00 0.17 0.09 68 1012.8
20260902231514 58 292 0.9 8.7 0.00 0.17 0.09 67 1012.7
20260902230006 58 267 1.7 10.4 0.00 0.17 0.09 70 1012.3
20260902224503 57 281 2.6 13.0 0.00 0.17 0.09 71 1012.1
20260902223002 57 300 6.1 14.8 0.00 0.17 0.09 74 1011.5
20260902221558 56 289 4.3 16.5 0.00 0.17 0.09 78 1011.4
20260902220058 56 232 1.7 9.6 0.00 0.17 0.09 85 1011.3
20260902214556 55 314 1.7 6.1 0.00 0.17 0.09 87 1011.0
20260902213051 53 245 1.7 8.7 0.00 0.17 0.09 91 1010.3
20260902211550 53 299 0.9 8.7 0.00 0.17 0.09 91 1010.3
20260902210048 53 254 3.5 8.7 0.00 0.17 0.09 91 1010.4
20260902204551 53 314 0.0 5.2 0.01 0.17 0.09 91 1010.3
20260902201554 53 299 1.7 6.1 0.01 0.17 0.09 91 1010.1
20260902200046 53 260 0.0 5.2 0.03 0.17 0.09 91 1009.9
20260902194552 53 271 0.9 3.5 0.02 0.16 0.09 92 1009.9
20260902193045 53 211 0.0 0.0 0.03 0.16 0.09 92 1010.0
20260902191544 53 346 0.9 3.5 0.03 0.16 0.09 92 1010.0
20260902190045 53 313 0.0 0.0 0.01 0.13 0.06 92 1009.5
20260902184543 53 350 0.0 0.0 0.03 0.13 0.06 92 1009.2
20260902183040 53 252 0.0 0.0 0.02 0.13 0.06 91 1009.3
20260902181539 53 317 0.0 0.0 0.03 0.13 0.06 91 1009.5
20260902180037 53 260 0.0 0.0 0.03 0.13 0.06 91 1009.7
20260902174534 53 290 0.0 0.0 0.01 0.10 0.03 90 1009.7
20260902173032 54 295 0.0 4.3 0.02 0.10 0.03 90 1009.5
20260902171531 54 291 2.6 7.8 0.01 0.09 0.02 90 1009.5
20260902170029 54 319 1.7 4.3 0.01 0.09 0.02 91 1009.8
20260902164526 54 316 0.0 5.2 0.02 0.09 0.02 91 1010.7
20260902163024 54 310 0.0 3.5 0.01 0.09 0.02 91 1011.0
20260902161533 54 329 0.0 2.6 0.01 0.09 0.02 91 1011.2
20260902160022 54 303 0.0 4.3 0.02 0.09 0.02 91 1011.3
20260902154519 54 268 0.9 4.3 0.01 0.08 0.01 91 1011.7
20260902153018 54 232 0.0 4.3 0.01 0.08 0.01 91 1012.1
20260902151525 54 321 0.0 0.0 0.01 0.08 0.01 91 1011.6
20260902150018 54 296 0.0 0.0 0.00 0.07 0.00 91 1011.8
20260902144515 54 288 0.0 0.0 0.01 0.07 0.00 91 1011.7
20260902143012 54 273 0.0 0.0 0.02 0.07 0.00 90 1011.9
20260902141510 55 284 0.0 3.5 0.04 0.07 0.00 90 1012.5
20260902140012 55 268 0.0 3.5 0.06 0.07 0.07 90 1012.8
20260902134506 55 254 0.0 4.3 0.06 0.06 0.06 89 1013.2
20260902133002 56 294 2.6 8.7 0.05 0.05 0.05 87 1013.7
20260902130001 56 237 0.0 5.2 0.02 0.02 0.02 87 1013.7
20260902124603 56 308 0.0 4.3 0.00 0.00 0.00 84 1013.8
20260902123103 56 324 0.0 0.0 0.00 0.00 0.00 83 1013.4
20260902121601 56 313 0.0 5.2 0.00 0.00 0.00 82 1013.5
20260902120100 56 254 0.0 0.0 0.00 0.00 0.00 82 1013.7
20260902114556 56 276 0.0 6.1 0.00 0.00 0.00 82 1013.7
20260902113058 56 286 0.0 3.5 0.00 0.00 0.00 82 1013.9
20260902111555 56 242 0.0 0.0 0.00 0.00 0.00 83 1013.8
20260902110101 57 274 0.0 0.0 0.00 0.00 0.00 83 1014.0
20260902104616 56 302 0.0 0.0 0.00 0.00 0.00 84 1014.2
20260902103053 56 276 0.0 0.0 0.00 0.00 0.00 84 1014.1
20260902101552 57 296 0.0 0.0 0.00 0.00 0.00 83 1014.4
20260902100109 57 310 0.0 0.0 0.00 0.00 0.00 82 1014.1
20260902094552 57 337 0.0 0.0 0.00 0.00 0.00 81 1014.5
20260902093100 58 343 0.0 2.6 0.00 0.00 0.00 80 1014.1
20260902091551 57 263 0.0 0.0 0.00 0.00 0.00 80 1014.7
20260902090050 58 332 0.0 0.0 0.00 0.00 0.00 79 1014.6
20260902084555 58 303 0.0 0.0 0.00 0.00 0.00 76 1014.5
20260902083102 59 261 0.0 0.0 0.00 0.00 0.00 75 1014.3
20260902081609 59 290 0.0 0.0 0.00 0.00 0.00 73 1014.3
20260902080056 60 309 0.0 0.0 0.00 0.00 0.00 71 1014.2
20260902074548 61 253 0.0 0.0 0.00 0.00 0.00 68 1014.1
20260902073047 62 276 0.0 0.0 0.00 0.00 0.00 67 1014.2
20260902071558 62 229 0.0 0.0 0.00 0.00 0.00 66 1014.2
20260902070046 62 287 0.9 7.8 0.00 0.00 0.00 65 1014.2
20260902064549 63 272 1.7 10.4 0.00 0.00 0.00 63 1014.1
20260902063108 63 242 2.6 13.0 0.00 0.00 0.00 62 1014.0
20260902061551 64 275 1.7 7.8 0.00 0.00 0.00 59 1014.0
20260902060145 64 235 3.5 11.3 0.00 0.00 0.00 60 1013.9
20260902054544 64 228 2.6 13.9 0.00 0.00 0.00 59 1014.1
20260902053043 64 229 2.6 9.6 0.00 0.00 0.00 59 1014.3
20260902051545 66 270 1.7 13.0 0.00 0.00 0.00 57 1014.4